User: anonymous   Login
Location: Gloden
(48.4833°N, 15.3167°E)
Time: 13:29:48
(UTC+00:00)
Language:

BREEZE-M DEB (TANK) - Orbit

View from above orbital plane
View from above orbital plane
View from above satellite
View from above satellite

Ground track
Ground track

The orbit data is extracted from the following two-line orbital elements,

1 28661U 05019C   20053.01996697  .00000511  00000-0  20270-3 0  9996
2 28661  49.4034   2.7441 6075086 141.7575 283.0205  3.92199078200997
Epoch (UTC): 22 February 2020 00:28:45
Eccentricity: 0.6075086
inclination: 49.4034°
perigee height: 288 km
apogee height: 20925 km
right ascension of ascending node: 2.7441°
argument of perigee: 141.7575°
revolutions per day: 3.92199078
mean anomaly at epoch: 283.0205°
orbit number at epoch: 20099

The dashed part of the orbit path shows where the satellite is in the earth's shadow,  

DLR